Weather History for Yellowstone, WY

Change the Weather History Date:

Saturday, March 2, 2013

  Actual Average Record
Temperature  
Mean Temperature 32 °F 19 °F  
Max Temperature 38 °F 32 °F 48 °F (2009)
Min Temperature 26 °F 5 °F -29 °F (2002)
Degree Days  
Heating Degree Days 33 46  
Month to date heating degree days 73 93  
Since 1 July heating degree days 7940 8030  
Cooling Degree Days 0 0  
Month to date cooling degree days 0 0  
Year to date cooling degree days 0 0  
Moisture  
Dew Point 24 °F    
Average Humidity 76    
Maximum Humidity 92    
Minimum Humidity 59    
Precipitation  
Precipitation 0.00 in 0.03 in 0.16 in (2004)
Month to date precipitation 0.01 0.06  
Year to date precipitation 2.35 3.58  
Sea Level Pressure  
Sea Level Pressure 30.34 in    
Wind  
Wind Speed 1 mph (North)    
Max Wind Speed 10 mph    
Max Gust Speed 18 mph    
T = Trace of Precipitation, MM = Missing Value Source: NWS Daily Summary

Daily Weather History Graph

Daily Weather History Graph

Search for Another Location

Airport:

Trip Planner

Search our weather history database for the weather conditions in past years. The results will help you decide how hot, cold, wet, or windy it might be!

Date:

Astronomy

Mar. 02, 2013 Rise Set
Actual Time 6:56 AM MST 6:11 PM MST
Civil Twilight 6:27 AM MST 6:40 PM MST
Nautical Twilight 5:53 AM MST 7:14 PM MST
Astronomical Twilight 5:20 AM MST 7:48 PM MST
Moon No Moon Rise 9:13 AM MST (3/2)
Length of Visible Light 12h 12m
Length of Day
11h 14m
Waning Gibbous, 73% of the Moon is Illuminated
Mar 2
Waning Gibbous
Mar 4
Last Quarter
Mar 11
New
Mar 19
First Quarter
Mar 27
Full

Hourly Weather History & Observations

Time (MST) Temp. Windchill Dew Point Humidity Pressure Visibility Wind Dir Wind Speed Gust Speed Precip Events Conditions
12:56 AM 27.0 °F - 24.1 °F 89% 30.50 in - Calm Calm - N/A   Unknown
1:56 AM 26.1 °F - 23.0 °F 88% 30.51 in - Calm Calm - N/A   Unknown
2:56 AM 26.1 °F - 24.1 °F 92% 30.50 in - Calm Calm - N/A   Unknown
3:56 AM 26.1 °F - 23.0 °F 88% 30.48 in - Calm Calm - N/A   Unknown
4:56 AM 26.1 °F - 23.0 °F 88% 30.49 in - Calm Calm - N/A   Unknown
5:56 AM 26.1 °F - 23.0 °F 88% 30.50 in - Calm Calm - N/A   Unknown
6:56 AM 27.0 °F - 24.1 °F 89% 30.51 in - Calm Calm - N/A   Unknown
7:56 AM 27.0 °F - 24.1 °F 89% 30.50 in - Calm Calm - N/A   Unknown
8:56 AM 28.9 °F - 26.1 °F 89% 30.48 in - Calm Calm - N/A   Unknown
9:56 AM 30.9 °F - 26.1 °F 82% 30.45 in - Calm Calm - N/A   Unknown
10:56 AM 33.1 °F 27.7 °F 26.1 °F 75% 30.42 in - Variable 5.8 mph - N/A   Unknown
11:56 AM 34.0 °F 29.8 °F 26.1 °F 73% 30.38 in - Variable 4.6 mph - N/A   Unknown
12:56 PM 35.1 °F 32.2 °F 26.1 °F 70% 30.35 in - Variable 3.5 mph - N/A   Unknown
1:56 PM 36.0 °F 32.1 °F 26.1 °F 67% 30.32 in - Variable 4.6 mph - N/A   Unknown
2:56 PM 37.0 °F - 25.0 °F 62% 30.27 in - Calm Calm - N/A   Unknown
3:56 PM 34.0 °F 31.0 °F 25.0 °F 70% 30.29 in - Variable 3.5 mph - N/A   Unknown
4:56 PM 34.0 °F 29.8 °F 25.0 °F 70% 30.25 in - Variable 4.6 mph - N/A   Unknown
5:56 PM 32.0 °F - 25.0 °F 75% 30.22 in - Calm Calm - N/A   Unknown
6:56 PM 28.9 °F - 24.1 °F 82% 30.20 in - Calm Calm - N/A   Unknown
7:56 PM 28.0 °F - 24.1 °F 85% 30.18 in - Calm Calm - N/A   Unknown
8:56 PM 27.0 °F - 23.0 °F 85% 30.16 in - Calm Calm - N/A   Unknown
9:56 PM 26.1 °F - 23.0 °F 88% 30.14 in - Calm Calm - N/A   Unknown
10:56 PM 28.9 °F - 24.1 °F 82% 30.10 in - Calm Calm - N/A   Unknown
11:56 PM 30.0 °F - 24.1 °F 79% 30.06 in - Calm Calm - N/A   Unknown